Location: Camp at the Woods
(43.2055°N, 93.0905°W)
Time: 12:21:09
(UTC+00:00)

NOSS 3-4 (A) - Pass Details

Date: 05 December 2023
Orbit: 810 x 1402 km, 63.4° (Epoch: 18 February)

Event Time Altitude Azimuth Distance (km) Brightness Sun altitude
Rises 22:48:46 0° 322° (NW) 3,804 6.7 -2.7°
Reaches altitude 10° 22:51:14 10° 322° (NW) 2,928 6.2 -3.1°
Maximum altitude 22:58:18 81° 237° (WSW) 1,218 4.2 -4.2°
Drops below altitude 10° 23:06:24 10° 151° (SSE) 3,333 6.3 -5.5°
Sets 23:09:23 0° 150° (SSE) 4,358 6.8 -6.0°
